This demonstration page uses our WeatherBlox Daily Observations layout. Learn more.

39.01783, -85.05884

Hourly Observations for August 7, 2020

Temp ( °F °C ) Dew Point ( °F °C ) Humidity (%) Winds ( mph kmh ) Pressure ( in mb ) Visibility ( mi km ) Precip ( " mm )
12:52 am 00:52 Partly Cloudy 68 20 57 13.9 68 68 N 5 7 30.07 1018 10 16.0934 0 0
1:52 am 01:52 Partly Cloudy 67 19.4 57 13.9 71 71 NNW 3 6 30.07 1018 10 16.0934 0 0
2:52 am 02:52 Mostly Clear 65 18.3 58 14.4 78 78 N 7 11 30.07 1018 10 16.0934 0 0
3:52 am 03:52 Cloudy 65 18.3 58 14.4 78 78 N 6 9 30.08 1019 10 16.0934 0 0
4:52 am 04:52 Partly Cloudy 63 17.2 58 14.4 84 84 Calm 30.08 1019 10 16.0934 0 0
5:52 am 05:52 Mostly Cloudy 63 17.2 58 14.4 84 84 NNW 7 11 30.08 1019 10 16.0934 0 0
6:52 am 06:52 Mostly Cloudy 63 17.2 58 14.4 84 84 N 6 9 30.1 1019 10 16.0934 0 0
7:52 am 07:52 Mostly Sunny 62 16.7 58 14.4 86 86 NNW 5 7 30.11 1020 10 16.0934 0 0
8:52 am 08:52 Mostly Sunny 66 18.9 59 15 78 78 N 8 13 30.12 1020 10 16.0934 0 0
9:52 am 09:52 Mostly Sunny 71 21.7 59 15 66 66 NNE 5 7 30.12 1020 10 16.0934 0 0
10:52 am 10:52 Mostly Sunny 75 23.9 58 14.4 55 55 NE 9 15 30.13 1020 10 16.0934 0 0
11:52 am 11:52 Mostly Sunny 77 25 57 13.9 50 50 NNE 5 7 30.13 1020 10 16.0934 0 0
12:52 pm 12:52 Mostly Cloudy 76 24.4 55 12.8 48 48 NNE 5 7 30.13 1020 10 16.0934 0 0
1:52 pm 13:52 Mostly Cloudy 79 26.1 57 13.9 47 47 N 8 13 30.12 1020 10 16.0934 0 0
2:52 pm 14:52 Mostly Cloudy 80 26.7 57 13.9 45 45 WNW 6 9 30.12 1020 10 16.0934 0 0
3:52 pm 15:52 Mostly Cloudy 81 27.2 56 13.3 42 42 Calm 30.11 1020 10 16.0934 0 0
4:52 pm 16:52 Mostly Cloudy 79 26.1 56 13.3 45 45 NNW 7 11 30.11 1020 10 16.0934 0 0
5:52 pm 17:52 Partly Cloudy 80 26.7 56 13.3 44 44 NNW 9 15 30.11 1020 10 16.0934 0 0
6:52 pm 18:52 Partly Cloudy 79 26.1 56 13.3 45 45 N 8 13 30.1 1019 10 16.0934 0 0
7:52 pm 19:52 Mostly Sunny 77 25 56 13.3 48 48 NNW 10 17 30.1 1019 10 16.0934 0 0
8:52 pm 20:52 Mostly Clear 74 23.3 56 13.3 54 54 NNW 7 11 30.11 1020 10 16.0934 0 0
9:52 pm 21:52 Mostly Clear 71 21.7 57 13.9 61 61 N 7 11 30.13 1020 10 16.0934 0 0
10:52 pm 22:52 Mostly Clear 70 21.1 56 13.3 61 61 N 7 11 30.13 1020 10 16.0934 0 0
11:52 pm 23:52 Mostly Clear 69 20.6 56 13.3 63 63 NNW 6 9 30.13 1020 10 16.0934 0 0

Powered by AerisWeather